Miscellaneous Local Product
Issued by NWS North Platte, NE

Home | Current Version | Previous Version | Text Only | Print | Product List | Glossary On
Versions: 1 2 3 4 5 6 7 8 9 10 11 12 13 14 15 16 17 18 19 20 21 22 23 24 25 26 27 28 29 30 31 32 33 34 35 36 37 38 39 40 41 42 43 44 45 46 47 48 49 50
000
AXUS43 KLBF 301110
MISLBF


WESTERN AND NORTH CENTRAL NEBRASKA HOURLY WEATHER ROUNDUP
NATIONAL WEATHER SERVICE NORTH PLATTE NE
600 AM CDT WED JUL 30 2014

***STATIONS NOT REPORTING VARIABLES SUCH AS SKY/WEATHER OR
PRESSURE ARE PROVIDED BY THE NEBRASKA DEPARTMENT OF
ROADS...RAWS...AND APRS NETWORKS...AND ARE NOT UNDER
NATIONAL WEATHER SERVICE QUALITY CONTROL***

...OBSERVATIONS IN AND NEAR THE EASTERN PANHANDLE OF NEBRASKA...

CITY           SKY/WX    TMP DP  RH WIND       PRES   REMARKS
PINE RIDGE     MOCLDY    46  45  96 CALM      30.24R
CHADRON        CLOUDY    53  52  96 CALM      30.24R
ALLIANCE       MOCLDY    60  54  80 N7        30.25R
SIDNEY         CLOUDY    62  60  93 NE5       30.26R
WHITECLAY        N/A     44  42  93 SE5         N/A
RUSHVILLE        N/A     49  47  95 W5          N/A
GORDON           N/A     54  54 100 W8          N/A
CRESCENT LAKE    N/A     62  57  83 CALM        N/A
LISCO            N/A     67  60  76 N7          N/A
BIG SPRINGS      N/A     63  61  94 CALM        N/A
$$

...OBSERVATIONS IN NORTH CENTRAL NEBRASKA...

CITY           SKY/WX    TMP DP  RH WIND       PRES   REMARKS
VALENTINE      CLEAR     50  48  93 SW7       30.20R
THEDFORD       MOCLDY    53  52  96 CALM      30.22R
AINSWORTH      CLEAR     51  49  90 W6        30.20R
O`NEILL        CLEAR     53  51  90 S3        30.17S FOG
ORD            CLEAR     54  53  97 N3        30.17R
BROKEN BOW     PTCLDY    56  54  93 N3        30.18S
BROWNLEE         N/A     60  55  84 NW3         N/A
SPRINGVIEW       N/A     50  48  93 CALM        N/A
DUNNING          N/A     55  55  99 CALM        N/A
ROSE             N/A     60  60  99 CALM        N/A
NEWPORT          N/A     50  50  99 CALM        N/A
SARGENT          N/A     54  53  96 CALM        N/A
COMSTOCK         N/A     58  57  97 CALM        N/A
CHAMBERS         N/A     53  51  95 CALM        N/A
$$

...OBSERVATIONS IN SOUTHWEST NEBRASKA AND FAR NORTHEAST COLORADO...

CITY           SKY/WX    TMP DP  RH WIND       PRES   REMARKS
WRAY             N/A    N/A N/A N/A E12       30.21R
HOLYOKE        PTSUNNY   63  61  94 E5        30.23R
IMPERIAL       CLOUDY    63  61  93 NE6       30.20S
OGALLALA       CLOUDY    62  60  96 CALM      30.21S
NORTH PLATTE   CLOUDY    62  59  90 CALM      30.19S
MCCOOK         CLOUDY    63  62  97 CALM      30.16F
LEXINGTON      CLOUDY    63  61  91 CALM      30.18R
PAXTON           N/A     64  62  92 CALM        N/A
SUTHERLAND       N/A     63  60  91 CALM        N/A
BRADY            N/A     62  58  86 CALM        N/A
CALLAWAY         N/A     61  60  96 CALM        N/A
$$

...SOME WEATHER OBSERVATIONS FROM AROUND THE REGION...

CITY           SKY/WX    TMP DP  RH WIND       PRES   REMARKS
DENVER         CLOUDY    59  57  93 NE10      30.27S
LARAMIE        LGT RAIN  53  51  93 NE7       30.36S
CHEYENNE       LGT RAIN  56  54  93 NE3       30.33S
SCOTTSBLUFF    CLOUDY    63  58  83 CALM      30.26R
RAPID CITY     CLEAR     50  49  96 NW3       30.20S
PIERRE         MOCLDY    60  59  96 E7        30.14S
WINNER         FAIR      57  49  74 W6        30.16S
SIOUX FALLS    CLEAR     54  51  90 CALM      30.15S
OMAHA          PTCLDY    55  53  93 NW5       30.14R
GRAND ISLAND   PTCLDY    59  56  89 N5        30.17R
KANSAS CITY    CLOUDY    63  59  87 NE7       30.11R
WICHITA        CLOUDY    70  61  73 E3        30.06S
HAYS           CLOUDY    68  55  64 E17       30.11R
LIBERAL        CLOUDY    66  63  88 SE6       30.04S
GOODLAND       LGT RAIN  61  59  93 NE15G23   30.18R
$$



USA.gov is the U.S. government's official web portal to all federal, state and local government web resources and services.